Change the Weather History Date:

Wednesday, September 18, 2013

  Actual Average Record
Temperature  
Mean Temperature 79 °F 62 °F  
Max Temperature 89 °F 76 °F 101 °F (1895)
Min Temperature 68 °F 49 °F 30 °F (1901)
Degree Days  
Heating Degree Days 0 5  
Month to date heating degree days 12 51  
Since 1 July heating degree days 32 66  
Cooling Degree Days 14 2  
Month to date cooling degree days 118 66  
Year to date cooling degree days 919 843  
Growing Degree Days 28 (Base 50)    
Moisture  
Dew Point 68 °F    
Average Humidity 75    
Maximum Humidity 96    
Minimum Humidity 99    
Precipitation  
Precipitation 0.00 in 0.10 in 3.17 in (1905)
Month to date precipitation 1.15 1.82  
Year to date precipitation 21.28 22.36  
Snow  
Snow 0.00 in 0.00 in 0.00 in ()
Month to date snowfall 0.0 0.0  
Since 1 July snowfall 0.0 0.0  
Since 1 September snowfall 0.0 0.0  
Snow Depth 0.00 in    
Sea Level Pressure  
Sea Level Pressure 29.72 in    
Wind  
Wind Speed 12 mph (SSE)    
Max Wind Speed 23 mph    
Max Gust Speed 28 mph    
Visibility 9 miles    
Events      
T = Trace of Precipitation, MM = Missing Value Source: NWS Daily Summary

Daily Weather History Graph

Daily Weather History Graph

Search for Another Location

Airport or City:

Trip Planner

Search our weather history database for the weather conditions in past years. The results will help you decide how hot, cold, wet, or windy it might be!

Date:

Astronomy

Sep. 18, 2013 Rise Set
Actual Time 7:08 AM CDT 7:29 PM CDT
Civil Twilight 6:40 AM CDT 7:57 PM CDT
Nautical Twilight 6:07 AM CDT 8:30 PM CDT
Astronomical Twilight 5:33 AM CDT 9:04 PM CDT
Moon 6:52 PM CDT (9/18) 6:12 AM CDT (9/18)
Length of Visible Light 13h 16m
Length of Day
12h 20m
Waxing Gibbous, 99% of the Moon is Illuminated
Sep 18
Waxing Gibbous
Sep 19
Full
Sep 26
Last Quarter
Oct 4
New
Oct 11
First Quarter

Hourly Weather History & Observations

Time (CDT) Temp. Heat Index Dew Point Humidity Pressure Visibility Wind Dir Wind Speed Gust Speed Precip Events Conditions
12:22 AM 68.0 °F - 66.2 °F 94% 29.85 in 6.0 mi SSE 11.5 mph - N/A   Overcast
12:52 AM 69.1 °F - 66.0 °F 90% 29.83 in 6.0 mi SSE 13.8 mph - N/A   Overcast
1:52 AM 69.1 °F - 66.9 °F 93% 29.83 in 6.0 mi SSE 13.8 mph - N/A   Overcast
2:52 AM 69.1 °F - 66.9 °F 93% 29.81 in 6.0 mi SSE 12.7 mph - N/A   Overcast
3:52 AM 68.0 °F - 66.0 °F 93% 29.78 in 5.0 mi SE 8.1 mph - N/A   Mostly Cloudy
4:52 AM 68.0 °F - 66.9 °F 96% 29.78 in 6.0 mi SE 6.9 mph - N/A   Overcast
5:52 AM 69.1 °F - 66.9 °F 93% 29.76 in 7.0 mi Variable 5.8 mph - N/A   Overcast
6:52 AM 69.1 °F - 66.9 °F 93% 29.77 in 9.0 mi SE 10.4 mph - N/A   Overcast
7:52 AM 69.1 °F - 66.0 °F 90% 29.78 in 7.0 mi South 11.5 mph - N/A   Overcast
8:52 AM 70.0 °F - 66.9 °F 90% 29.77 in 7.0 mi SSE 10.4 mph - N/A   Scattered Clouds
9:52 AM 73.9 °F - 68.0 °F 82% 29.76 in 10.0 mi South 12.7 mph - N/A   Mostly Cloudy
10:52 AM 78.1 °F - 68.0 °F 71% 29.75 in 10.0 mi South 12.7 mph - N/A   Mostly Cloudy
10:55 AM 78.8 °F - 69.8 °F 74% 29.77 in 10.0 mi South 12.7 mph - N/A   Partly Cloudy
11:52 AM 82.0 °F 85.5 °F 69.1 °F 65% 29.72 in 10.0 mi SSE 16.1 mph 19.6 mph N/A   Partly Cloudy
12:52 PM 84.0 °F 88.4 °F 70.0 °F 63% 29.69 in 10.0 mi South 16.1 mph 21.9 mph N/A   Clear
1:52 PM 87.1 °F 92.0 °F 70.0 °F 57% 29.68 in 10.0 mi South 17.3 mph 25.3 mph N/A   Clear
2:52 PM 88.0 °F 92.9 °F 70.0 °F 55% 29.66 in 10.0 mi South 17.3 mph 24.2 mph N/A   Scattered Clouds
3:52 PM 89.1 °F 93.7 °F 69.1 °F 52% 29.65 in 10.0 mi South 15.0 mph 25.3 mph N/A   Partly Cloudy
4:52 PM 87.1 °F 90.6 °F 68.0 °F 53% 29.65 in 10.0 mi South 13.8 mph 24.2 mph N/A   Scattered Clouds
5:52 PM 89.1 °F 93.7 °F 69.1 °F 52% 29.64 in 10.0 mi South 15.0 mph 19.6 mph N/A   Clear
6:52 PM 84.9 °F 88.8 °F 69.1 °F 59% 29.64 in 10.0 mi South 5.8 mph - N/A   Clear
7:52 PM 81.0 °F 84.4 °F 70.0 °F 69% 29.64 in 10.0 mi SSE 8.1 mph - N/A   Clear
8:52 PM 78.1 °F - 70.0 °F 76% 29.64 in 10.0 mi SE 8.1 mph - N/A   Clear
9:52 PM 79.0 °F - 69.1 °F 72% 29.64 in 10.0 mi SSE 10.4 mph - N/A   Clear
10:52 PM 78.1 °F - 68.0 °F 71% 29.64 in 10.0 mi SSE 10.4 mph - N/A   Clear
11:52 PM 78.1 °F - 66.9 °F 68% 29.64 in 10.0 mi South 12.7 mph - N/A   Clear